Location: Bushrod
(6.3500°N, 10.7833°W)
Time: 13:37:12
(UTC+00:00)

YAOGAN 1 - Pass Details

Date: 17 September 2019
Orbit: 619 x 621 km, 98.0° (Epoch: 22 October)

Event Time Altitude Azimuth Distance (km) Brightness Sun altitude
Rises 18:57:42 0° 147° (SSE) 2,889 5.6 -4.7°
Reaches altitude 10° 19:00:09 10° 134° (SE) 1,983 4.7 -5.4°
Maximum altitude 19:03:46 27° 77° (ENE) 1,208 3.5 -6.3°
Drops below altitude 10° 19:07:23 10° 20° (NNE) 1,979 5.0 -7.1°
Sets 19:09:50 0° 8° (N) 2,883 5.9 -7.8°
